Location: Township of Marena
(38.1747°N, 99.6798°W)
Time: 02:55:19
(UTC+00:00)

Cosmos 1656 - Pass Details

Date: 26 October 2020
Orbit: 796 x 851 km, 71.1° (Epoch: 24 November)

Event Time Altitude Azimuth Distance (km) Brightness Sun altitude
Exits shadow 11:17:48 16° 330° (NNW) 2,107 5.5 -20.5°
Maximum altitude 11:22:26 65° 252° (WSW) 933 3.6 -19.6°
Drops below altitude 10° 11:28:01 10° 171° (S) 2,458 6.2 -18.5°
Sets 11:30:27 0° 168° (SSE) 3,384 7.0 -18.0°
